This is the latest recevied weather packets stored in our database for station/object W8CWV-13. If no packets are shown the sender has not sent any weather packets the latest 10 day(s).
| Time | Temp. | Humidity | Pressure | Rain* | Wind** | Luminosity | Snow |
|---|---|---|---|---|---|---|---|
| 1777766788 | 10.56° C | 100% | 1021.2 hPa | - | - | - | - |
| 1777766216 | 10.56° C | 100% | 1021.2 hPa | - | - | - | - |
| 1777765639 | 11.11° C | 100% | 1021.1 hPa | - | - | - | - |
| 1777765072 | 11.11° C | 100% | 1021.2 hPa | - | - | - | - |
| 1777764492 | 11.11° C | 100% | 1021.1 hPa | - | - | - | - |
| 1777763922 | 11.11° C | 100% | 1021 hPa | - | - | - | - |
| 1777763346 | 11.67° C | 100% | 1020.9 hPa | - | - | - | - |
| 1777762775 | 11.67° C | 100% | 1020.7 hPa | - | - | - | - |
| 1777762209 | 12.22° C | 100% | 1020.6 hPa | - | - | - | - |
| 1777761632 | 12.22° C | 100% | 1020.7 hPa | - | - | - | - |
| 1777761060 | 12.22° C | 100% | 1020.6 hPa | - | - | - | - |
| 1777760486 | 12.22° C | 100% | 1020.5 hPa | - | - | - | - |
| 1777759920 | 12.78° C | 100% | 1020.5 hPa | - | - | - | - |
| 1777759344 | 12.78° C | 100% | 1020.4 hPa | - | - | - | - |
| 1777758772 | 12.78° C | 100% | 1020.6 hPa | - | - | - | - |
| 1777758199 | 12.78° C | 100% | 1020.5 hPa | - | - | - | - |
| 1777757626 | 13.33° C | 100% | 1020.5 hPa | - | - | - | - |
| 1777757055 | 13.33° C | 100% | 1020.4 hPa | - | - | - | - |
| 1777756481 | 12.78° C | 100% | 1020.5 hPa | - | - | - | - |
| 1777755913 | 12.78° C | 100% | 1020.3 hPa | - | - | - | - |
| 1777755333 | 12.78° C | 100% | 1020.1 hPa | - | - | - | - |
| 1777754757 | 12.78° C | 100% | 1020.2 hPa | - | - | - | - |
| 1777754190 | 13.33° C | 100% | 1020.2 hPa | - | - | - | - |
| 1777753611 | 13.33° C | 100% | 1020.2 hPa | - | - | - | - |
| 1777753036 | 14.44° C | 100% | 1020.1 hPa | - | - | - | - |
* Rain since midnight (hover to see other rain measurements)
** Current wind speed in m/s (hover to see current wind gust speed)